GW3485 Weather Reports


time (UTC)temp
F
wind
direction
speed
knots
gust
knots
rain 1hr
in
rain 24hr
in
rain mn
in
humidity
%
barometer
mb
20260510044811 50 248 0.9 0.9 0.00 0.24 0.24 99 1011.8
20260510044308 50 249 0.0 0.9 0.00 0.24 0.24 98 1012.0
20260510043804 51 251 0.9 0.9 0.00 0.24 0.24 98 1012.0
20260510043255 51 243 0.0 0.0 0.00 0.24 0.24 98 1011.8
20260510042752 52 243 0.0 0.9 0.00 0.24 0.24 98 1012.0
20260510042247 52 251 0.9 0.9 0.00 0.24 0.24 98 1012.1
20260510041744 53 243 0.0 0.0 0.00 0.24 0.24 97 1012.0
20260510041241 53 236 0.0 0.0 0.00 0.24 0.24 97 1012.0
20260510040738 54 256 0.9 0.9 0.00 0.24 0.24 96 1011.8
20260510040230 54 255 1.7 1.7 0.00 0.24 0.24 96 1012.0
20260510035725 54 215 0.9 0.9 0.00 0.24 0.24 95 1012.1
20260510035221 54 223 0.9 1.7 0.00 0.24 0.24 95 1012.3
20260510034717 53 122 2.6 2.6 0.00 0.24 0.24 99 1012.3
20260510034216 52 257 0.9 1.7 0.00 0.24 0.24 99 1012.1
20260510033711 51 254 0.0 0.0 0.00 0.24 0.24 99 1011.9
20260510033210 51 256 0.9 0.9 0.00 0.24 0.24 99 1011.7
20260510032705 50 284 1.7 2.6 0.00 0.24 0.24 99 1011.7
20260510032201 49 262 1.7 1.7 0.00 0.24 0.24 99 1011.6
20260510031655 48 249 0.9 0.9 0.00 0.24 0.24 99 1011.2
20260510031152 48 248 0.0 0.9 0.00 0.24 0.24 99 1011.2
20260510030646 48 248 0.0 0.0 0.00 0.24 0.24 99 1011.2
20260510030145 48 248 0.0 0.0 0.00 0.24 0.24 99 1011.2
20260510025642 48 248 0.0 0.0 0.00 0.24 0.24 99 1011.3
20260510025139 48 249 0.9 0.9 0.00 0.24 0.24 99 1011.1
20260510024636 48 248 0.0 0.0 0.00 0.24 0.24 99 1011.3
20260510024132 48 248 0.0 0.0 0.00 0.24 0.24 99 1011.2
20260510023628 48 248 0.0 0.9 0.00 0.24 0.24 99 1011.1
20260510023126 48 249 0.0 0.0 0.00 0.24 0.24 99 1011.0
20260510022625 48 249 0.0 0.0 0.00 0.24 0.24 99 1011.1
20260510022120 48 249 0.9 0.9 0.00 0.24 0.24 99 1011.1
20260510021611 48 249 0.9 0.9 0.00 0.24 0.24 99 1011.0
20260510021108 48 249 0.0 0.9 0.00 0.24 0.24 99 1010.6
20260510020602 48 249 0.9 0.9 0.00 0.24 0.24 99 1010.9
20260510020058 48 249 0.0 0.0 0.00 0.24 0.24 99 1010.7
20260510015554 48 249 0.0 0.9 0.00 0.24 0.24 99 1011.0
20260510015050 48 248 0.0 0.9 0.00 0.24 0.24 98 1010.9
20260510014546 48 249 0.9 0.9 0.00 0.24 0.24 98 1010.5
20260510014043 49 248 0.9 0.9 0.00 0.24 0.24 98 1010.5
20260510013532 49 248 0.0 0.0 0.00 0.24 0.24 98 1010.4
20260510013028 49 248 0.0 0.0 0.00 0.24 0.24 97 1010.2
20260510012522 50 248 0.0 0.0 0.00 0.24 0.24 97 1010.4
20260510012019 50 248 0.0 0.0 0.00 0.24 0.24 97 1010.3
20260510011519 50 249 0.9 0.9 0.00 0.24 0.24 97 1010.2
20260510011014 50 249 0.9 0.9 0.00 0.24 0.24 96 1010.2
20260510010512 51 248 0.0 0.0 0.00 0.24 0.24 96 1010.0
20260510010009 51 248 0.0 0.0 0.00 0.24 0.24 95 1010.1
20260510005504 51 248 0.0 0.0 0.00 0.24 0.24 95 1010.2
20260510005002 52 248 0.0 0.9 0.00 0.24 0.24 94 1010.2
20260510004459 52 248 0.9 0.9 0.00 0.24 0.24 94 1010.1
20260510003957 53 248 0.0 0.0 0.00 0.24 0.24 94 1009.8
20260510003454 53 248 0.0 0.0 0.00 0.24 0.24 93 1009.6
20260510002949 53 248 0.0 0.0 0.00 0.24 0.24 93 1009.8
20260510002445 54 248 0.9 0.9 0.00 0.24 0.24 92 1009.8
20260510001942 55 248 0.0 0.0 0.00 0.24 0.24 92 1009.8
20260510001439 55 248 0.9 0.9 0.00 0.24 0.24 91 1009.5
20260510000937 56 248 0.9 0.9 0.00 0.24 0.24 89 1009.6
20260510000433 57 248 1.7 1.7 0.00 0.24 0.24 87 1009.6
20260509235929 57 247 0.9 0.9 0.00 0.24 0.24 85 1009.5
20260509235426 58 248 1.7 1.7 0.00 0.24 0.24 84 1009.4
20260509234922 59 252 1.7 1.7 0.00 0.24 0.24 80 1009.4
20260509234419 60 244 0.0 0.9 0.00 0.24 0.24 79 1009.3
20260509233917 62 221 0.0 0.9 0.00 0.24 0.24 72 1009.3
20260509233415 64 220 0.9 0.9 0.00 0.24 0.24 66 1009.3
20260509232910 64 228 1.7 2.6 0.00 0.24 0.24 64 1009.3
20260509232409 63 227 0.9 0.9 0.00 0.24 0.24 63 1009.4
20260509231904 65 239 2.6 2.6 0.00 0.24 0.24 67 1009.3
20260509231401 66 154 2.6 3.5 0.00 0.24 0.24 58 1009.2
20260509230859 66 203 1.7 1.7 0.00 0.24 0.24 58 1009.1
20260509230356 66 224 1.7 1.7 0.00 0.24 0.24 57 1009.0
20260509225851 66 222 1.7 1.7 0.00 0.24 0.24 57 1009.0
20260509225348 67 211 3.5 3.5 0.00 0.24 0.24 59 1009.3
20260509224844 67 190 1.7 1.7 0.00 0.24 0.24 58 1009.3
20260509224340 67 246 3.5 3.5 0.00 0.24 0.24 61 1009.4
20260509223837 67 220 3.5 3.5 0.00 0.24 0.24 57 1009.5
20260509223334 67 226 4.3 5.2 0.00 0.24 0.24 56 1009.4
20260509222831 68 142 7.8 8.7 0.00 0.24 0.24 55 1009.6
20260509222326 68 250 0.0 0.9 0.00 0.24 0.24 55 1009.6
20260509221821 67 235 0.9 0.9 0.00 0.24 0.24 55 1009.4
20260509221320 68 216 1.7 1.7 0.00 0.24 0.24 57 1009.4
20260509220819 68 265 3.5 7.8 0.00 0.24 0.24 56 1009.6
20260509220316 68 222 0.0 0.9 0.00 0.24 0.24 56 1009.5
20260509215811 68 187 3.5 3.5 0.00 0.24 0.24 55 1009.3
20260509215308 68 181 4.3 5.2 0.00 0.24 0.24 55 1009.5
20260509214805 67 190 3.5 3.5 0.00 0.24 0.24 57 1009.6
20260509214302 68 222 0.9 1.7 0.00 0.24 0.24 57 1009.8
20260509213759 67 229 0.9 0.9 0.00 0.24 0.24 58 1009.8
20260509213255 67 224 3.5 5.2 0.00 0.24 0.24 55 1009.8
20260509212753 68 208 3.5 5.2 0.00 0.24 0.24 56 1009.8
20260509212250 67 200 2.6 3.5 0.00 0.24 0.24 57 1009.7
20260509211745 68 224 0.9 0.9 0.00 0.24 0.24 57 1009.6
20260509211242 67 241 1.7 2.6 0.00 0.24 0.24 56 1009.5
20260509210738 67 232 1.7 1.7 0.00 0.24 0.24 57 1009.5
20260509210236 67 140 7.0 8.7 0.00 0.24 0.24 56 1009.8
20260509205735 68 207 1.7 3.5 0.00 0.24 0.24 56 1009.7
20260509205230 68 228 0.9 1.7 0.00 0.24 0.24 56 1009.7
20260509204726 68 197 3.5 3.5 0.00 0.24 0.24 55 1010.0
20260509204223 69 223 1.7 2.6 0.00 0.24 0.24 55 1009.8
20260509203719 68 182 3.5 5.2 0.00 0.24 0.24 55 1009.9
20260509203217 68 230 0.9 0.9 0.00 0.24 0.24 58 1009.9
20260509202713 68 299 3.5 5.2 0.00 0.24 0.24 57 1010.0
20260509202208 66 172 2.6 2.6 0.00 0.24 0.24 61 1009.7
20260509201703 65 213 1.7 2.6 0.00 0.24 0.24 63 1009.9
20260509201200 67 216 2.6 3.5 0.00 0.24 0.24 61 1009.9
20260509200656 68 223 3.5 5.2 0.00 0.24 0.24 60 1010.1
20260509200152 67 262 2.6 2.6 0.00 0.24 0.24 60 1010.1
20260509195648 66 181 1.7 2.6 0.00 0.24 0.24 62 1010.1
20260509195143 66 198 0.9 1.7 0.00 0.24 0.24 64 1010.1
20260509194642 67 187 3.5 5.2 0.00 0.24 0.24 63 1010.2
20260509194140 66 199 1.7 2.6 0.00 0.24 0.24 66 1010.3
20260509193635 65 164 3.5 3.5 0.00 0.24 0.24 66 1010.2
20260509193126 66 139 4.3 6.1 0.00 0.24 0.24 65 1010.5
20260509192623 65 191 1.7 2.6 0.00 0.24 0.24 68 1010.6
20260509192117 66 169 4.3 5.2 0.00 0.24 0.24 68 1010.6
20260509191612 65 173 2.6 2.6 0.00 0.24 0.24 69 1010.5
20260509191109 65 167 3.5 5.2 0.00 0.24 0.24 69 1010.7
20260509190606 64 176 2.6 2.6 0.00 0.24 0.24 70 1010.9
20260509190103 63 230 1.7 2.6 0.00 0.24 0.24 71 1010.7
20260509185601 63 157 2.6 3.5 0.00 0.24 0.24 71 1010.9
20260509185056 62 240 0.9 0.9 0.00 0.24 0.24 73 1010.9
20260509184555 63 233 0.9 0.9 0.00 0.24 0.24 71 1011.0
20260509184051 62 198 1.7 1.7 0.00 0.24 0.24 72 1010.9
20260509183547 63 275 3.5 3.5 0.00 0.24 0.24 70 1011.0
20260509183043 64 185 2.6 3.5 0.00 0.24 0.24 71 1010.9
20260509182539 63 163 3.5 5.2 0.00 0.24 0.24 70 1011.1
20260509182031 63 233 0.9 0.9 0.00 0.24 0.24 77 1011.1
20260509181529 62 200 1.7 1.7 0.00 0.24 0.24 72 1010.9
20260509181026 62 188 5.2 7.8 0.00 0.24 0.24 77 1011.0
20260509180521 61 229 2.6 3.5 0.00 0.24 0.24 78 1011.1
20260509180019 61 208 0.9 0.9 0.00 0.24 0.24 79 1011.0
20260509175514 60 172 2.6 2.6 0.00 0.24 0.24 79 1011.1
20260509175011 60 207 0.9 0.9 0.00 0.24 0.24 80 1011.2
20260509174508 60 219 0.9 0.9 0.00 0.24 0.24 81 1011.2
20260509174002 59 248 0.9 0.9 0.00 0.24 0.24 81 1011.2
20260509173457 59 211 1.7 1.7 0.00 0.24 0.24 83 1011.2
20260509172954 59 208 1.7 1.7 0.00 0.24 0.24 84 1011.2
20260509172451 59 233 1.7 2.6 0.00 0.24 0.24 85 1011.1
20260509171946 58 198 0.9 0.9 0.00 0.24 0.24 86 1010.7
20260509171442 58 224 0.9 1.7 0.00 0.24 0.24 87 1011.0
20260509170939 58 237 0.0 0.0 0.00 0.24 0.24 87 1011.0
20260509170435 58 246 0.9 0.9 0.00 0.24 0.24 91 1011.0
20260509165930 58 229 0.0 0.0 0.00 0.24 0.24 90 1010.9
20260509165425 57 233 0.0 0.0 0.00 0.24 0.24 91 1010.7
20260509164921 57 227 0.9 0.9 0.00 0.24 0.24 93 1010.6
20260509164417 56 214 0.9 1.7 0.00 0.24 0.24 93 1010.7
20260509163913 56 207 1.7 1.7 0.00 0.24 0.24 94 1010.6
20260509163410 55 209 1.7 2.6 0.00 0.24 0.24 95 1010.6
20260509162909 55 215 1.7 1.7 0.00 0.24 0.24 96 1010.7
20260509162408 55 222 0.0 0.0 0.00 0.24 0.24 95 1010.9
20260509161904 55 218 0.9 0.9 0.00 0.24 0.24 95 1011.1
20260509161400 55 218 0.9 1.7 0.00 0.24 0.24 96 1010.9
20260509160856 55 203 0.9 1.7 0.00 0.24 0.24 97 1010.4
20260509160352 55 216 0.0 0.9 0.00 0.24 0.24 98 1010.6
20260509155847 55 216 0.9 0.9 0.07 0.24 0.24 98 1010.6
20260509155344 54 220 0.0 0.0 0.07 0.24 0.24 98 1010.9
20260509154840 54 220 0.0 0.0 0.00 0.23 0.23 98 1010.9
20260509154337 54 220 0.0 0.9 0.00 0.23 0.23 97 1010.9
20260509153833 54 216 0.9 0.9 0.00 0.23 0.23 97 1011.0
20260509153331 55 210 2.6 3.5 0.00 0.23 0.23 97 1010.9
20260509152827 55 172 4.3 5.2 0.00 0.23 0.23 96 1010.9
20260509152323 55 223 0.9 0.9 0.00 0.23 0.23 96 1010.9
20260509151821 55 214 2.6 2.6 0.00 0.23 0.23 96 1010.6
20260509151316 55 224 0.0 0.9 0.00 0.23 0.23 97 1010.9
20260509150816 55 221 0.9 0.9 0.00 0.23 0.23 97 1010.6
20260509150313 54 223 2.6 2.6 0.00 0.23 0.23 98 1010.7
20260509145810 54 227 0.9 1.7 0.00 0.23 0.23 98 1011.0
20260509145309 53 201 1.7 2.6 0.00 0.23 0.23 98 1011.0
20260509144806 53 225 0.9 1.7 0.00 0.23 0.23 99 1011.1
20260509144303 53 158 3.5 5.2 0.00 0.23 0.23 98 1011.0
20260509143801 53 229 0.9 0.9 0.00 0.23 0.23 99 1011.3
20260509143258 53 223 0.9 1.7 0.00 0.23 0.23 98 1011.1
20260509142753 53 176 1.7 2.6 0.05 0.23 0.23 99 1011.5
20260509141109 52 218 0.9 0.9 0.07 0.22 0.22 99 1011.2
20260509140606 52 218 0.9 0.9 0.07 0.22 0.22 99 1011.2
20260509140104 52 221 0.9 1.7 0.07 0.22 0.22 99 1011.3
20260509135601 52 211 1.7 1.7 0.05 0.21 0.21 99 1011.4
20260509135059 52 211 1.7 1.7 0.05 0.21 0.21 99 1011.4
20260509134555 52 213 0.9 1.7 0.05 0.21 0.21 99 1011.5
20260509134053 52 226 0.0 0.0 0.05 0.21 0.21 99 1011.4
20260509133550 52 227 0.0 0.9 0.00 0.20 0.20 99 1011.3
20260509133048 52 206 1.7 1.7 0.00 0.20 0.20 99 1011.5
20260509132546 52 223 0.9 0.9 0.07 0.20 0.20 99 1011.4
20260509132044 52 230 0.0 0.0 0.07 0.20 0.20 99 1011.6
20260509131539 52 226 0.0 0.0 0.05 0.19 0.19 99 1011.5
20260509131036 51 235 0.9 0.9 0.05 0.19 0.19 99 1011.5
20260509130531 51 230 0.0 0.0 0.00 0.18 0.18 99 1011.4
20260509130023 51 237 0.0 0.0 0.07 0.18 0.18 99 1011.6
20260509125520 51 208 0.9 1.7 0.07 0.18 0.18 99 1011.6
20260509125016 51 225 0.0 0.0 0.05 0.17 0.17 99 1011.7
20260509124513 51 238 0.0 0.0 0.05 0.17 0.17 99 1011.6
20260509124010 51 220 1.7 1.7 0.05 0.17 0.17 99 1011.9
20260509123508 51 231 0.0 0.0 0.07 0.16 0.16 99 1011.5
20260509123004 51 229 0.0 0.0 0.00 0.15 0.15 99 1011.7
20260509122501 51 236 0.0 0.0 0.05 0.15 0.15 99 1011.8
20260509121958 51 228 0.0 0.0 0.05 0.15 0.15 99 1011.7
20260509121454 51 231 0.0 0.0 0.07 0.14 0.14 99 1011.8
20260509120952 51 237 0.0 0.9 0.07 0.14 0.14 99 1011.6
20260509120450 51 232 0.0 0.0 0.05 0.13 0.13 99 1011.7
20260509115948 51 245 0.0 0.0 0.12 0.13 0.13 99 1011.6
20260509115445 51 237 0.0 0.0 0.07 0.12 0.12 99 1011.8
20260509114942 51 231 0.0 0.0 0.00 0.11 0.11 99 1011.7
20260509114440 51 230 0.0 0.0 0.07 0.11 0.11 99 1011.5
20260509113940 50 237 0.0 0.0 0.07 0.11 0.11 99 1011.5
20260509113436 50 237 0.0 0.0 0.00 0.10 0.10 99 1011.5
20260509112933 50 240 0.9 0.9 0.05 0.10 0.10 99 1011.4
20260509112431 50 222 1.7 1.7 0.05 0.10 0.10 99 1011.6
20260509111927 50 230 0.0 0.9 0.00 0.09 0.09 99 1011.5
20260509111425 50 235 0.0 0.0 0.00 0.09 0.09 99 1011.4
20260509110922 50 235 0.0 0.0 0.00 0.09 0.09 99 1011.5
20260509110418 50 234 0.0 0.0 0.00 0.09 0.09 99 1011.5
20260509105916 50 234 0.0 0.0 0.00 0.09 0.09 99 1011.5
20260509105414 50 234 0.0 0.0 0.00 0.09 0.09 99 1011.4
20260509104911 50 234 0.0 0.0 0.07 0.09 0.09 99 1011.5
20260509104408 50 234 0.0 0.0 0.07 0.09 0.09 99 1011.3
20260509103905 50 234 0.0 0.0 0.00 0.08 0.08 99 1011.1
20260509103402 50 233 0.0 0.0 0.00 0.08 0.08 99 1011.2
20260509102901 50 234 0.0 0.0 0.00 0.08 0.08 99 1011.4
20260509102358 50 234 0.0 0.0 0.00 0.08 0.08 99 1011.3
20260509101853 50 233 0.0 0.0 0.05 0.08 0.08 99 1011.3
20260509101350 50 234 0.0 0.0 0.05 0.08 0.08 99 1011.4
20260509100848 50 232 0.0 0.0 0.00 0.07 0.07 99 1011.3
20260509100345 50 235 0.0 0.0 0.00 0.07 0.07 99 1011.3
20260509095841 50 235 0.0 0.0 0.00 0.07 0.07 99 1011.5
20260509095339 50 235 0.0 0.0 0.07 0.07 0.07 99 1011.5
20260509094836 50 233 0.0 0.0 0.07 0.07 0.07 99 1011.6
20260509094332 50 222 0.0 0.0 0.00 0.06 0.06 99 1011.5
20260509093830 50 222 0.0 0.0 0.05 0.06 0.06 99 1011.6
20260509093327 50 222 0.0 0.0 0.05 0.06 0.06 98 1011.5
20260509092826 51 222 0.0 0.0 0.00 0.05 0.05 98 1011.6
20260509092323 51 222 0.0 0.0 0.07 0.05 0.05 97 1011.7
20260509091821 51 222 0.0 0.0 0.07 0.05 0.05 96 1011.8
20260509091317 51 219 0.9 0.9 0.00 0.04 0.04 96 1011.9
20260509090815 51 217 0.9 0.9 0.05 0.04 0.04 95 1011.9
20260509090312 51 232 0.9 0.9 0.05 0.04 0.04 97 1012.0
20260509085809 51 227 0.9 1.7 0.05 0.04 0.04 96 1011.9
20260509085307 51 233 0.0 0.0 0.07 0.03 0.03 96 1012.0
20260509084803 51 223 1.7 1.7 0.07 0.03 0.03 96 1012.1
20260509084300 51 235 0.0 0.0 0.07 0.03 0.03 96 1012.1
20260509083758 51 235 0.0 0.9 0.00 0.02 0.02 95 1012.0
20260509083254 51 225 0.0 0.0 0.00 0.02 0.02 96 1012.3
20260509082750 51 239 0.9 0.9 0.05 0.02 0.02 94 1012.3
20260509082247 52 220 0.0 0.9 0.05 0.02 0.02 92 1012.2
20260509081744 53 226 0.9 0.9 0.00 0.01 0.01 90 1012.1
20260509081242 53 226 0.9 1.7 0.07 0.01 0.01 88 1012.0
20260509080740 54 268 0.9 0.9 0.07 0.01 0.01 84 1012.0
20260509080237 53 230 0.9 0.9 0.00 0.00 0.00 87 1012.0
20260509075735 52 223 0.9 1.7 0.00 0.00 0.00 85 1012.0
20260509075232 50 194 0.0 0.9 0.00 0.00 0.00 93 1011.8
20260509074729 49 248 1.7 1.7 0.00 0.00 0.00 99 1011.5
20260509074227 49 227 0.0 0.0 0.00 0.00 0.00 99 1011.7
20260509073723 49 232 0.0 0.0 0.00 0.00 0.00 99 1011.4
20260509073219 48 232 0.0 0.0 0.00 0.00 0.00 99 1011.3
20260509072716 48 232 0.0 0.0 0.00 0.00 0.00 99 1011.1
20260509072213 48 223 0.0 0.0 0.00 0.00 0.00 99 1011.0
20260509071709 48 186 2.6 2.6 0.00 0.00 0.00 99 1010.6
20260509071207 48 255 0.0 0.0 0.00 0.00 0.00 99 1010.7
20260509070704 48 255 0.0 0.0 0.00 0.00 0.00 99 1010.7
20260509070200 48 255 0.0 0.0 0.00 0.00 0.00 99 1010.7
20260509065656 48 255 0.0 0.0 0.00 0.00 0.00 99 1010.5
20260509065152 48 255 0.0 0.0 0.00 0.00 0.00 99 1010.4
20260509064649 48 255 0.0 0.0 0.00 0.00 0.00 99 1010.6
20260509064147 48 255 0.0 0.0 0.00 0.00 0.00 99 1010.6
20260509063644 48 255 0.0 0.0 0.00 0.00 0.00 99 1010.7
20260509063140 48 255 0.0 0.0 0.00 0.00 0.00 99 1010.6
20260509062638 48 255 0.0 0.0 0.00 0.00 0.00 99 1010.4
20260509062135 48 255 0.0 0.0 0.00 0.00 0.00 99 1010.7
20260509061631 48 255 0.0 0.0 0.00 0.00 0.00 99 1011.0
20260509061129 48 256 0.0 0.0 0.00 0.00 0.00 99 1011.2
20260509060626 48 258 0.0 0.0 0.00 0.00 0.00 99 1011.0
20260509060122 48 255 0.0 0.0 0.00 0.00 0.00 99 1011.4
20260509055618 48 255 0.0 0.0 0.00 0.00 0.00 99 1011.3
20260509055114 48 255 0.0 0.0 0.00 0.00 0.00 99 1011.2
20260509054611 49 255 0.0 0.0 0.00 0.00 0.00 99 1011.2
20260509054109 49 255 0.0 0.0 0.00 0.00 0.00 99 1011.5
20260509053607 49 255 0.0 0.0 0.00 0.00 0.00 99 1011.8
20260509053103 48 255 0.0 0.0 0.00 0.00 0.00 99 1011.9
20260509052601 48 256 0.9 0.9 0.00 0.00 0.00 99 1011.8
20260509052059 48 255 0.9 0.9 0.00 0.00 0.00 99 1011.8
20260509051557 48 255 0.9 0.9 0.00 0.00 0.00 99 1011.8
20260509051053 48 255 0.0 0.0 0.00 0.00 0.00 99 1011.9
20260509050550 48 255 0.0 0.0 0.00 0.00 0.00 99 1011.8
20260509050047 49 255 0.9 0.9 0.00 0.00 0.00 99 1011.9
20260509045544 49 255 0.0 0.0 0.00 0.00 0.00 99 1011.7